STARLINK-2018 (47640 NORAD) Tracking and Keplerian Element Data

This shows tracking and keplerian element data for the satellite.

Feedback or suggestion? Click here.




ElementValue
Catalog47640
NameSTARLINK-2018
Epoch Orbit183
Epoch Day56.91667824
Epoch Year2021
RAAN53.6729
Inclination53.0489
Eccentricity0.0001149
Argument of Perigee63.7439
Mean Anonmoly24.8063
Mean Motion15.79413289
Decay Rate-0.01069065
L11 47640U 21012W 21056.91667824 -.01069065 00000-0 -64278-2 0 9992
L22 47640 53.0489 53.6729 0001149 63.7439 24.8063 15.79413289 1835

Live tracking and technical data element details for STARLINK-2018 (NORAD 47640). STARLINK-2018 can be tracked NOW for your location showing map with azimuth and elevation plus other details from your city location.

Track the satellite on the map from your city or location and see movement details for azimuth, elevation, latitude, longitude, range, height, and movement on the map or in text.







IsCatalogInMostPopularTable: catalog: 47640, numindb: 1
Update: records affected: 1



GetName: 47640 STARLINK-2018

Hit Count: updated at: Fri, 26 Feb 2021 09:10:38 GMT